Time,TemperatureF,DewpointF,PressureIn,WindDirection,WindDirectionDegrees,WindSpeedMPH,WindSpeedGustMPH,Humidity,HourlyPrecipIn,Conditions,Clouds,dailyrainin,SoftwareType,DateUTC
2013-06-23 00:03:00,72.0,16.6,29.74,WNW,296,0.0,7.0,12,0.00,,,0.00,Wunderground v.1.15,2013-06-23 06:03:00,
2013-06-23 00:08:00,71.5,14.2,29.74,WNW,296,0.0,7.0,11,0.00,,,0.00,Wunderground v.1.15,2013-06-23 06:08:00,
2013-06-23 00:18:00,71.0,13.8,29.74,WNW,296,1.0,1.0,11,0.00,,,0.00,Wunderground v.1.15,2013-06-23 06:18:00,
2013-06-23 00:28:00,70.6,17.3,29.74,WNW,297,0.0,0.0,13,0.00,,,0.00,Wunderground v.1.15,2013-06-23 06:28:00,
2013-06-23 00:33:00,70.3,17.1,29.74,WNW,296,0.0,2.0,13,0.00,,,0.00,Wunderground v.1.15,2013-06-23 06:33:00,
2013-06-23 00:38:00,70.0,16.8,29.74,WNW,296,0.0,2.0,13,0.00,,,0.00,Wunderground v.1.15,2013-06-23 06:38:00,
2013-06-23 00:48:00,70.8,9.1,29.74,WNW,296,1.0,1.0,9,0.00,,,0.00,Wunderground v.1.15,2013-06-23 06:48:00,
2013-06-23 00:53:00,71.2,13.9,29.74,WNW,296,1.0,2.0,11,0.00,,,0.00,Wunderground v.1.15,2013-06-23 06:53:00,
2013-06-23 01:03:00,71.2,11.8,29.74,WNW,296,1.0,2.0,10,0.00,,,0.00,Wunderground v.1.15,2013-06-23 07:03:00,
2013-06-23 01:08:00,71.2,11.8,29.73,WNW,296,1.0,2.0,10,0.00,,,0.00,Wunderground v.1.15,2013-06-23 07:08:00,
2013-06-23 01:18:00,70.9,13.7,29.74,WNW,296,1.0,2.0,11,0.00,,,0.00,Wunderground v.1.15,2013-06-23 07:18:00,
2013-06-23 01:23:00,71.5,14.2,29.74,WNW,296,2.0,2.0,11,0.00,,,0.00,Wunderground v.1.15,2013-06-23 07:23:00,
2013-06-23 01:28:00,70.9,13.7,29.74,WNW,296,2.0,2.0,11,0.00,,,0.00,Wunderground v.1.15,2013-06-23 07:28:00,
2013-06-23 01:38:00,69.8,12.9,29.75,WNW,295,1.0,5.0,11,0.00,,,0.00,Wunderground v.1.15,2013-06-23 07:38:00,
2013-06-23 01:48:00,70.3,11.1,29.75,WNW,293,2.0,5.0,10,0.00,,,0.00,Wunderground v.1.15,2013-06-23 07:48:00,
2013-06-23 01:58:00,69.7,14.8,29.75,WNW,294,1.0,1.0,12,0.00,,,0.00,Wunderground v.1.15,2013-06-23 07:58:00,
2013-06-23 02:03:00,69.5,14.6,29.76,WNW,294,1.0,5.0,12,0.00,,,0.00,Wunderground v.1.15,2013-06-23 08:03:00,
2013-06-23 02:08:00,69.6,14.7,29.76,WNW,294,1.0,5.0,12,0.00,,,0.00,Wunderground v.1.15,2013-06-23 08:08:00,
2013-06-23 02:18:00,69.7,12.8,29.77,WNW,294,2.0,5.0,11,0.00,,,0.00,Wunderground v.1.15,2013-06-23 08:18:00,
2013-06-23 02:28:00,70.4,11.2,29.76,WNW,294,2.0,3.0,10,0.00,,,0.00,Wunderground v.1.15,2013-06-23 08:28:00,
2013-06-23 02:38:00,70.9,13.7,29.77,WNW,294,2.0,4.0,11,0.00,,,0.00,Wunderground v.1.15,2013-06-23 08:38:00,
2013-06-23 02:43:00,71.0,9.3,29.76,WNW,293,2.0,4.0,9,0.00,,,0.00,Wunderground v.1.15,2013-06-23 08:43:00,
2013-06-23 02:53:00,70.9,15.7,29.77,WNW,293,1.0,4.0,12,0.00,,,0.00,Wunderground v.1.15,2013-06-23 08:53:00,
2013-06-23 03:03:00,68.4,17.3,29.77,WNW,293,0.0,4.0,14,0.00,,,0.00,Wunderground v.1.15,2013-06-23 09:03:00,
2013-06-23 03:13:00,67.1,16.3,29.77,WNW,293,1.0,4.0,14,0.00,,,0.00,Wunderground v.1.15,2013-06-23 09:13:00,
2013-06-23 03:18:00,66.5,17.4,29.77,WNW,293,1.0,1.0,15,0.00,,,0.00,Wunderground v.1.15,2013-06-23 09:18:00,
2013-06-23 03:28:00,65.8,15.2,29.77,WNW,293,0.0,0.0,14,0.00,,,0.00,Wunderground v.1.15,2013-06-23 09:28:00,
2013-06-23 03:38:00,65.5,19.5,29.77,WNW,293,0.0,4.0,17,0.00,,,0.00,Wunderground v.1.15,2013-06-23 09:38:00,
2013-06-23 03:43:00,65.0,20.4,29.77,WNW,293,0.0,4.0,18,0.00,,,0.00,Wunderground v.1.15,2013-06-23 09:43:00,
2013-06-23 03:53:00,63.8,18.1,29.77,WNW,293,0.0,4.0,17,0.00,,,0.00,Wunderground v.1.15,2013-06-23 09:53:00,
2013-06-23 04:03:00,62.8,19.9,29.77,WNW,293,0.0,4.0,19,0.00,,,0.00,Wunderground v.1.15,2013-06-23 10:03:00,
2013-06-23 04:13:00,62.4,18.3,29.77,WNW,293,0.0,4.0,18,0.00,,,0.00,Wunderground v.1.15,2013-06-23 10:13:00,
2013-06-23 04:18:00,62.3,18.2,29.77,WNW,293,0.0,4.0,18,0.00,,,0.00,Wunderground v.1.15,2013-06-23 10:18:00,
2013-06-23 04:23:00,62.3,18.2,29.77,WNW,293,0.0,4.0,18,0.00,,,0.00,Wunderground v.1.15,2013-06-23 10:23:00,
2013-06-23 04:28:00,62.3,15.5,29.77,WNW,293,0.0,1.0,16,0.00,,,0.00,Wunderground v.1.15,2013-06-23 10:28:00,
2013-06-23 04:38:00,62.5,14.2,29.78,WNW,293,1.0,1.0,15,0.00,,,0.00,Wunderground v.1.15,2013-06-23 10:38:00,
2013-06-23 04:48:00,62.4,12.5,29.78,WNW,293,2.0,2.0,14,0.00,,,0.00,Wunderground v.1.15,2013-06-23 10:48:00,
2013-06-23 04:58:00,62.4,14.1,29.78,WNW,293,2.0,2.0,15,0.00,,,0.00,Wunderground v.1.15,2013-06-23 10:58:00,
2013-06-23 05:08:00,62.0,15.2,29.78,WNW,293,1.0,2.0,16,0.00,,,0.00,Wunderground v.1.15,2013-06-23 11:08:00,
2013-06-23 05:13:00,61.8,13.6,29.78,WNW,293,0.0,2.0,15,0.00,,,0.00,Wunderground v.1.15,2013-06-23 11:13:00,
2013-06-23 05:23:00,61.8,13.6,29.78,WNW,294,1.0,2.0,15,0.00,,,0.00,Wunderground v.1.15,2013-06-23 11:23:00,
2013-06-23 05:33:00,62.1,13.8,29.78,WNW,294,1.0,3.0,15,0.00,,,0.00,Wunderground v.1.15,2013-06-23 11:33:00,
2013-06-23 05:38:00,62.0,15.2,29.79,WNW,294,0.0,3.0,16,0.00,,,0.00,Wunderground v.1.15,2013-06-23 11:38:00,
2013-06-23 05:48:00,61.3,13.2,29.79,WNW,294,1.0,3.0,15,0.00,,,0.00,Wunderground v.1.15,2013-06-23 11:48:00,
2013-06-23 05:53:00,61.3,13.2,29.79,WNW,294,2.0,3.0,15,0.00,,,0.00,Wunderground v.1.15,2013-06-23 11:53:00,
2013-06-23 06:03:00,61.0,12.9,29.80,WNW,294,1.0,3.0,15,0.00,,,0.00,Wunderground v.1.15,2013-06-23 12:03:00,
2013-06-23 06:08:00,60.9,14.3,29.80,WNW,294,0.0,3.0,16,0.00,,,0.00,Wunderground v.1.15,2013-06-23 12:08:00,
2013-06-23 06:13:00,60.9,14.3,29.80,WNW,294,0.0,3.0,16,0.00,,,0.00,Wunderground v.1.15,2013-06-23 12:13:00,
2013-06-23 06:23:00,60.9,21.8,29.80,WNW,294,0.0,3.0,22,0.00,,,0.00,Wunderground v.1.15,2013-06-23 12:23:00,
2013-06-23 06:28:00,61.0,17.1,29.80,WNW,294,0.0,0.0,18,0.00,,,0.00,Wunderground v.1.15,2013-06-23 12:28:00,
2013-06-23 06:38:00,61.3,18.6,29.81,WNW,294,0.0,4.0,19,0.00,,,0.00,Wunderground v.1.15,2013-06-23 12:38:00,
2013-06-23 06:48:00,61.8,21.4,29.80,WNW,294,0.0,4.0,21,0.00,,,0.00,Wunderground v.1.15,2013-06-23 12:48:00,
2013-06-23 06:58:00,63.1,21.3,29.81,WNW,294,0.0,4.0,20,0.00,,,0.00,Wunderground v.1.15,2013-06-23 12:58:00,
2013-06-23 07:08:00,64.9,22.8,29.81,WNW,294,0.0,4.0,20,0.00,,,0.00,Wunderground v.1.15,2013-06-23 13:08:00,
2013-06-23 07:13:00,65.4,22.0,29.82,WNW,294,0.0,4.0,19,0.00,,,0.00,Wunderground v.1.15,2013-06-23 13:13:00,
2013-06-23 07:23:00,66.1,21.3,29.82,WNW,294,1.0,4.0,18,0.00,,,0.00,Wunderground v.1.15,2013-06-23 13:23:00,
2013-06-23 07:33:00,68.1,21.6,29.82,WNW,294,0.0,1.0,17,0.00,,,0.00,Wunderground v.1.15,2013-06-23 13:33:00,
2013-06-23 07:43:00,70.9,20.9,29.82,WNW,294,0.0,1.0,15,0.00,,,0.00,Wunderground v.1.15,2013-06-23 13:43:00,
2013-06-23 07:53:00,71.0,21.0,29.82,West,281,1.0,3.0,15,0.00,,,0.00,Wunderground v.1.15,2013-06-23 13:53:00,
2013-06-23 08:03:00,68.9,24.9,29.83,West,277,2.0,3.0,19,0.00,,,0.00,Wunderground v.1.15,2013-06-23 14:03:00,
2013-06-23 08:13:00,68.4,23.2,29.83,West,272,2.0,2.0,18,0.00,,,0.00,Wunderground v.1.15,2013-06-23 14:13:00,
2013-06-23 08:23:00,68.9,23.6,29.82,West,263,2.0,3.0,18,0.00,,,0.00,Wunderground v.1.15,2013-06-23 14:23:00,
2013-06-23 08:28:00,69.4,22.7,29.83,WSW,257,2.0,2.0,17,0.00,,,0.00,Wunderground v.1.15,2013-06-23 14:28:00,
2013-06-23 08:33:00,70.1,23.2,29.83,WSW,252,2.0,5.0,17,0.00,,,0.00,Wunderground v.1.15,2013-06-23 14:33:00,
2013-06-23 08:38:00,70.6,22.2,29.83,WSW,245,2.0,5.0,16,0.00,,,0.00,Wunderground v.1.15,2013-06-23 14:38:00,
2013-06-23 08:48:00,71.7,16.3,29.83,SW,217,3.0,5.0,12,0.00,,,0.00,Wunderground v.1.15,2013-06-23 14:48:00,
2013-06-23 08:58:00,72.4,18.7,29.83,SSW,211,3.0,3.0,13,0.00,,,0.00,Wunderground v.1.15,2013-06-23 14:58:00,
2013-06-23 09:03:00,72.7,19.0,29.83,SSW,209,3.0,5.0,13,0.00,,,0.00,Wunderground v.1.15,2013-06-23 15:03:00,
2013-06-23 09:13:00,74.7,20.5,29.83,SSW,208,1.0,5.0,13,0.00,,,0.00,Wunderground v.1.15,2013-06-23 15:13:00,
2013-06-23 09:23:00,76.0,21.6,29.83,SSW,203,1.0,5.0,13,0.00,,,0.00,Wunderground v.1.15,2013-06-23 15:23:00,
2013-06-23 09:28:00,76.6,20.1,29.83,SSW,202,1.0,1.0,12,0.00,,,0.00,Wunderground v.1.15,2013-06-23 15:28:00,
2013-06-23 09:33:00,76.8,20.3,29.83,SSW,197,2.0,2.0,12,0.00,,,0.00,Wunderground v.1.15,2013-06-23 15:33:00,
2013-06-23 09:38:00,77.2,22.5,29.83,SSW,197,2.0,6.0,13,0.00,,,0.00,Wunderground v.1.15,2013-06-23 15:38:00,
2013-06-23 09:43:00,77.5,20.8,29.83,SSW,196,2.0,6.0,12,0.00,,,0.00,Wunderground v.1.15,2013-06-23 15:43:00,
2013-06-23 09:53:00,78.8,21.9,29.82,South,185,3.0,6.0,12,0.00,,,0.00,Wunderground v.1.15,2013-06-23 15:53:00,
2013-06-23 10:08:00,79.8,22.6,29.82,SE,142,3.0,6.0,12,0.00,,,0.00,Wunderground v.1.15,2013-06-23 16:08:00,
2013-06-23 10:18:00,80.7,21.3,29.81,SE,146,4.0,6.0,11,0.00,,,0.00,Wunderground v.1.15,2013-06-23 16:18:00,
2013-06-23 10:28:00,81.7,19.8,29.80,SSE,150,4.0,4.0,10,0.00,,,0.00,Wunderground v.1.15,2013-06-23 16:28:00,
2013-06-23 10:33:00,82.2,17.7,29.80,SSE,165,5.0,5.0,9,0.00,,,0.00,Wunderground v.1.15,2013-06-23 16:33:00,
2013-06-23 10:43:00,82.3,17.8,29.80,SSE,147,6.0,8.0,9,0.00,,,0.00,Wunderground v.1.15,2013-06-23 16:43:00,
2013-06-23 10:48:00,82.9,18.2,29.80,SE,138,5.0,8.0,9,0.00,,,0.00,Wunderground v.1.15,2013-06-23 16:48:00,
2013-06-23 10:53:00,83.2,18.5,29.80,South,182,6.0,8.0,9,0.00,,,0.00,Wunderground v.1.15,2013-06-23 16:53:00,
2013-06-23 10:58:00,83.4,18.6,29.79,SSE,155,6.0,8.0,9,0.00,,,0.00,Wunderground v.1.15,2013-06-23 16:58:00,
2013-06-23 11:08:00,84.5,16.7,29.79,SSE,157,6.0,8.0,8,0.00,,,0.00,Wunderground v.1.15,2013-06-23 17:08:00,
2013-06-23 11:13:00,84.7,16.8,29.79,SE,145,6.0,8.0,8,0.00,,,0.00,Wunderground v.1.15,2013-06-23 17:13:00,
2013-06-23 11:23:00,84.4,19.4,29.79,South,186,6.0,7.0,9,0.00,,,0.00,Wunderground v.1.15,2013-06-23 17:23:00,
2013-06-23 11:28:00,84.7,16.8,29.79,SW,234,6.0,7.0,8,0.00,,,0.00,Wunderground v.1.15,2013-06-23 17:28:00,
2013-06-23 11:38:00,85.5,14.4,29.78,WSW,237,4.0,4.0,7,0.00,,,0.00,Wunderground v.1.15,2013-06-23 17:38:00,
2013-06-23 11:43:00,85.7,17.6,29.78,WSW,251,5.0,8.0,8,0.00,,,0.00,Wunderground v.1.15,2013-06-23 17:43:00,
2013-06-23 11:53:00,85.4,14.3,29.78,WSW,242,8.0,12.0,7,0.00,,,0.00,Wunderground v.1.15,2013-06-23 17:53:00,
2013-06-23 12:03:00,85.6,14.4,29.77,SSW,194,6.0,12.0,7,0.00,,,0.00,Wunderground v.1.15,2013-06-23 18:03:00,
2013-06-23 12:08:00,86.4,15.0,29.77,SW,227,6.0,12.0,7,0.00,,,0.00,Wunderground v.1.15,2013-06-23 18:08:00,
2013-06-23 12:18:00,86.4,15.0,29.77,South,175,6.0,6.0,7,0.00,,,0.00,Wunderground v.1.15,2013-06-23 18:18:00,
2013-06-23 12:28:00,87.2,15.6,29.76,SSW,203,6.0,6.0,7,0.00,,,0.00,Wunderground v.1.15,2013-06-23 18:28:00,
2013-06-23 12:33:00,87.1,15.5,29.76,SSW,202,6.0,7.0,7,0.00,,,0.00,Wunderground v.1.15,2013-06-23 18:33:00,
2013-06-23 12:43:00,87.1,12.0,29.76,South,182,6.0,8.0,6,0.00,,,0.00,Wunderground v.1.15,2013-06-23 18:43:00,
2013-06-23 12:53:00,87.8,16.0,29.75,SSW,206,7.0,8.0,7,0.00,,,0.00,Wunderground v.1.15,2013-06-23 18:53:00,
2013-06-23 13:03:00,87.9,12.6,29.75,South,180,7.0,10.0,6,0.00,,,0.00,Wunderground v.1.15,2013-06-23 19:03:00,
2013-06-23 13:13:00,89.7,17.4,29.74,South,177,5.0,15.0,7,0.00,,,0.00,Wunderground v.1.15,2013-06-23 19:13:00,
2013-06-23 13:23:00,89.0,16.9,29.74,SSE,154,5.0,15.0,7,0.00,,,0.00,Wunderground v.1.15,2013-06-23 19:23:00,
2013-06-23 13:28:00,88.6,16.6,29.74,SE,136,6.0,8.0,7,0.00,,,0.00,Wunderground v.1.15,2013-06-23 19:28:00,
2013-06-23 13:38:00,88.6,19.7,29.73,WSW,251,5.0,5.0,8,0.00,,,0.00,Wunderground v.1.15,2013-06-23 19:38:00,
2013-06-23 13:43:00,88.1,16.3,29.73,ESE,123,6.0,8.0,7,0.00,,,0.00,Wunderground v.1.15,2013-06-23 19:43:00,
2013-06-23 13:53:00,88.3,16.4,29.73,East,101,5.0,15.0,7,0.00,,,0.00,Wunderground v.1.15,2013-06-23 19:53:00,
2013-06-23 14:03:00,89.6,17.4,29.72,SSE,149,5.0,15.0,7,0.00,,,0.00,Wunderground v.1.15,2013-06-23 20:03:00,
2013-06-23 14:13:00,89.9,17.6,29.71,SE,132,5.0,15.0,7,0.00,,,0.00,Wunderground v.1.15,2013-06-23 20:13:00,
2013-06-23 14:18:00,89.2,13.5,29.71,SSE,147,6.0,6.0,6,0.00,,,0.00,Wunderground v.1.15,2013-06-23 20:18:00,
2013-06-23 14:23:00,89.6,13.8,29.71,SE,130,6.0,9.0,6,0.00,,,0.00,Wunderground v.1.15,2013-06-23 20:23:00,
2013-06-23 14:28:00,89.8,14.0,29.71,SSE,165,7.0,9.0,6,0.00,,,0.00,Wunderground v.1.15,2013-06-23 20:28:00,
2013-06-23 14:38:00,90.8,18.2,29.70,SSE,157,6.0,6.0,7,0.00,,,0.00,Wunderground v.1.15,2013-06-23 20:38:00,
2013-06-23 14:43:00,90.6,14.5,29.70,SSE,165,6.0,9.0,6,0.00,,,0.00,Wunderground v.1.15,2013-06-23 20:43:00,
2013-06-23 14:53:00,91.1,10.8,29.69,SSE,159,6.0,15.0,5,0.00,,,0.00,Wunderground v.1.15,2013-06-23 20:53:00,
2013-06-23 15:03:00,90.4,17.9,29.69,SSE,159,6.0,15.0,7,0.00,,,0.00,Wunderground v.1.15,2013-06-23 21:03:00,
2013-06-23 15:08:00,90.9,14.7,29.69,South,169,4.0,4.0,6,0.00,,,0.00,Wunderground v.1.15,2013-06-23 21:08:00,
2013-06-23 15:18:00,91.4,15.1,29.68,SSE,163,4.0,4.0,6,0.00,,,0.00,Wunderground v.1.15,2013-06-23 21:18:00,
2013-06-23 15:23:00,91.3,15.0,29.68,SSE,154,4.0,6.0,6,0.00,,,0.00,Wunderground v.1.15,2013-06-23 21:23:00,
2013-06-23 15:28:00,91.0,14.8,29.69,SE,131,5.0,6.0,6,0.00,,,0.00,Wunderground v.1.15,2013-06-23 21:28:00,
2013-06-23 15:38:00,90.6,10.4,29.69,South,178,6.0,6.0,5,0.00,,,0.00,Wunderground v.1.15,2013-06-23 21:38:00,
2013-06-23 15:48:00,90.4,14.4,29.68,ESE,105,4.0,16.0,6,0.00,,,0.00,Wunderground v.1.15,2013-06-23 21:48:00,
2013-06-23 15:53:00,90.3,17.9,29.68,East,82,5.0,16.0,7,0.00,,,0.00,Wunderground v.1.15,2013-06-23 21:53:00,
2013-06-23 16:03:00,90.6,10.4,29.67,SSE,167,4.0,16.0,5,0.00,,,0.00,Wunderground v.1.15,2013-06-23 22:03:00,
2013-06-23 16:13:00,91.8,11.2,29.67,SSE,158,3.0,5.0,5,0.00,,,0.00,Wunderground v.1.15,2013-06-23 22:13:00,
2013-06-23 16:28:00,92.2,11.5,29.66,South,170,6.0,6.0,5,0.00,,,0.00,Wunderground v.1.15,2013-06-23 22:28:00,
2013-06-23 16:38:00,92.5,11.7,29.66,South,170,7.0,16.0,5,0.00,,,0.00,Wunderground v.1.15,2013-06-23 22:38:00,
2013-06-23 16:48:00,92.6,11.8,29.65,South,188,3.0,16.0,5,0.00,,,0.00,Wunderground v.1.15,2013-06-23 22:48:00,
2013-06-23 16:53:00,92.7,11.9,29.65,SSE,161,5.0,16.0,5,0.00,,,0.00,Wunderground v.1.15,2013-06-23 22:53:00,
2013-06-23 17:03:00,92.2,11.5,29.64,SE,130,9.0,16.0,5,0.00,,,0.00,Wunderground v.1.15,2013-06-23 23:03:00,
2013-06-23 17:13:00,92.1,11.5,29.63,SSE,156,7.0,16.0,5,0.00,,,0.00,Wunderground v.1.15,2013-06-23 23:13:00,
2013-06-23 17:23:00,92.7,11.9,29.63,SSE,155,6.0,9.0,5,0.00,,,0.00,Wunderground v.1.15,2013-06-23 23:23:00,
2013-06-23 17:28:00,92.9,12.0,29.62,SSE,157,7.0,13.0,5,0.00,,,0.00,Wunderground v.1.15,2013-06-23 23:28:00,
2013-06-23 17:38:00,92.9,12.0,29.62,SSE,157,8.0,17.0,5,0.00,,,0.00,Wunderground v.1.15,2013-06-23 23:38:00,
2013-06-23 17:48:00,93.2,12.2,29.61,SE,146,7.0,17.0,5,0.00,,,0.00,Wunderground v.1.15,2013-06-23 23:48:00,
2013-06-23 17:53:00,92.8,11.9,29.62,SE,146,10.0,17.0,5,0.00,,,0.00,Wunderground v.1.15,2013-06-23 23:53:00,
2013-06-23 17:58:00,93.0,16.3,29.61,South,182,11.0,11.0,6,0.00,,,0.00,Wunderground v.1.15,2013-06-23 23:58:00,
2013-06-23 18:08:00,92.6,11.8,29.61,SSE,154,10.0,17.0,5,0.00,,,0.00,Wunderground v.1.15,2013-06-24 00:08:00,
2013-06-23 18:13:00,92.6,11.8,29.61,South,169,9.0,17.0,5,0.00,,,0.00,Wunderground v.1.15,2013-06-24 00:13:00,
2013-06-23 18:23:00,92.6,16.0,29.61,South,173,9.0,17.0,6,0.00,,,0.00,Wunderground v.1.15,2013-06-24 00:23:00,
2013-06-23 18:28:00,92.5,15.9,29.61,South,170,9.0,9.0,6,0.00,,,0.00,Wunderground v.1.15,2013-06-24 00:28:00,
2013-06-23 18:38:00,92.6,11.8,29.61,SSE,162,8.0,8.0,5,0.00,,,0.00,Wunderground v.1.15,2013-06-24 00:38:00,
2013-06-23 18:48:00,92.7,11.9,29.61,South,178,6.0,6.0,5,0.00,,,0.00,Wunderground v.1.15,2013-06-24 00:48:00,
2013-06-23 18:53:00,92.8,16.1,29.61,SSE,168,6.0,19.0,6,0.00,,,0.00,Wunderground v.1.15,2013-06-24 00:53:00,
2013-06-23 19:03:00,92.6,11.8,29.61,SSE,147,6.0,19.0,5,0.00,,,0.00,Wunderground v.1.15,2013-06-24 01:03:00,
2013-06-23 19:13:00,92.2,15.7,29.61,SSE,159,6.0,19.0,6,0.00,,,0.00,Wunderground v.1.15,2013-06-24 01:13:00,
2013-06-23 19:18:00,91.9,15.5,29.61,SE,144,6.0,19.0,6,0.00,,,0.00,Wunderground v.1.15,2013-06-24 01:18:00,
2013-06-23 19:28:00,91.6,11.1,29.60,SSE,167,7.0,9.0,5,0.00,,,0.00,Wunderground v.1.15,2013-06-24 01:28:00,
2013-06-23 19:38:00,91.2,15.0,29.60,SSE,165,6.0,6.0,6,0.00,,,0.00,Wunderground v.1.15,2013-06-24 01:38:00,
2013-06-23 19:48:00,90.4,17.9,29.61,South,170,5.0,5.0,7,0.00,,,0.00,Wunderground v.1.15,2013-06-24 01:48:00,
2013-06-23 19:58:00,89.4,17.2,29.60,South,171,4.0,4.0,7,0.00,,,0.00,Wunderground v.1.15,2013-06-24 01:58:00,
2013-06-23 20:08:00,88.6,16.6,29.60,South,171,3.0,13.0,7,0.00,,,0.00,Wunderground v.1.15,2013-06-24 02:08:00,
2013-06-23 20:18:00,89.0,4.4,29.61,SSW,199,4.0,13.0,4,0.00,,,0.00,Wunderground v.1.15,2013-06-24 02:18:00,
2013-06-23 20:28:00,89.2,4.5,29.61,SSW,209,4.0,4.0,4,0.00,,,0.00,Wunderground v.1.15,2013-06-24 02:28:00,
2013-06-23 20:38:00,88.8,4.2,29.61,SSW,209,4.0,8.0,4,0.00,,,0.00,Wunderground v.1.15,2013-06-24 02:38:00,
2013-06-23 20:43:00,88.6,4.1,29.61,SSW,211,4.0,8.0,4,0.00,,,0.00,Wunderground v.1.15,2013-06-24 02:43:00,
2013-06-23 20:53:00,87.9,3.6,29.61,SSW,209,3.0,8.0,4,0.00,,,0.00,Wunderground v.1.15,2013-06-24 02:53:00,
2013-06-23 21:03:00,87.5,-2.8,29.61,SW,216,4.0,8.0,3,0.00,,,0.00,Wunderground v.1.15,2013-06-24 03:03:00,
2013-06-23 21:08:00,87.2,-3.0,29.61,SSW,211,4.0,4.0,3,0.00,,,0.00,Wunderground v.1.15,2013-06-24 03:08:00,
2013-06-23 21:18:00,86.6,-3.4,29.62,SW,219,3.0,3.0,3,0.00,,,0.00,Wunderground v.1.15,2013-06-24 03:18:00,
2013-06-23 21:28:00,85.9,-3.9,29.62,SW,219,3.0,3.0,3,0.00,,,0.00,Wunderground v.1.15,2013-06-24 03:28:00,
2013-06-23 21:38:00,85.5,-4.2,29.62,SW,236,5.0,10.0,3,0.00,,,0.00,Wunderground v.1.15,2013-06-24 03:38:00,
2013-06-23 21:48:00,85.7,-4.0,29.63,SW,229,7.0,8.0,3,0.00,,,0.00,Wunderground v.1.15,2013-06-24 03:48:00,
2013-06-23 21:58:00,85.7,2.1,29.64,SW,223,7.0,10.0,4,0.00,,,0.00,Wunderground v.1.15,2013-06-24 03:58:00,
2013-06-23 22:03:00,85.7,2.1,29.64,WSW,243,8.0,10.0,4,0.00,,,0.00,Wunderground v.1.15,2013-06-24 04:03:00,
2013-06-23 22:08:00,85.5,1.9,29.65,WSW,242,8.0,8.0,4,0.00,,,0.00,Wunderground v.1.15,2013-06-24 04:08:00,
2013-06-23 22:13:00,85.2,1.7,29.65,SW,234,7.0,8.0,4,0.00,,,0.00,Wunderground v.1.15,2013-06-24 04:13:00,
2013-06-23 22:23:00,84.7,6.2,29.65,SW,228,7.0,7.0,5,0.00,,,0.00,Wunderground v.1.15,2013-06-24 04:23:00,
2013-06-23 22:28:00,84.6,6.2,29.65,SW,236,8.0,10.0,5,0.00,,,0.00,Wunderground v.1.15,2013-06-24 04:28:00,
2013-06-23 22:33:00,84.3,6.0,29.66,WSW,240,7.0,17.0,5,0.00,,,0.00,Wunderground v.1.15,2013-06-24 04:33:00,
2013-06-23 22:38:00,84.0,5.7,29.66,WSW,238,6.0,6.0,5,0.00,,,0.00,Wunderground v.1.15,2013-06-24 04:38:00,
2013-06-23 22:48:00,83.6,0.6,29.66,WSW,246,7.0,7.0,4,0.00,,,0.00,Wunderground v.1.15,2013-06-24 04:48:00,
2013-06-23 22:53:00,83.3,0.4,29.67,West,264,8.0,8.0,4,0.00,,,0.00,Wunderground v.1.15,2013-06-24 04:53:00,
2013-06-23 23:03:00,82.9,0.2,29.67,WSW,252,7.0,17.0,4,0.00,,,0.00,Wunderground v.1.15,2013-06-24 05:03:00,
2013-06-23 23:08:00,83.0,0.2,29.68,West,261,8.0,8.0,4,0.00,,,0.00,Wunderground v.1.15,2013-06-24 05:08:00,
2013-06-23 23:18:00,82.7,4.8,29.68,WSW,250,8.0,17.0,5,0.00,,,0.00,Wunderground v.1.15,2013-06-24 05:18:00,
2013-06-23 23:28:00,82.3,4.5,29.68,WSW,240,7.0,7.0,5,0.00,,,0.00,Wunderground v.1.15,2013-06-24 05:28:00,
2013-06-23 23:38:00,81.6,4.1,29.70,WSW,238,5.0,5.0,5,0.00,,,0.00,Wunderground v.1.15,2013-06-24 05:38:00,
2013-06-23 23:53:00,80.5,3.3,29.70,SSW,208,4.0,17.0,5,0.00,,,0.00,Wunderground v.1.15,2013-06-24 05:53:00,